Tracking 30923 objects as of 1-Jul-2025
HD Live streaming from Space Station
objects crossing your sky now

THOR ABLESTAR DEB

Track THOR ABLESTAR DEB now!
10-day predictions


NORAD ID: 541
Int'l Code: 1961-015GA
Perigee: 892.5 km
Apogee: 1,006.1 km
Inclination: 67.2 °
Period: 103.9 minutes
Semi major axis: 7320 km
RCS: 0.0369 m2 (small)
Launch date: June 29, 1961
Source: United States (US)
Launch site: AIR FORCE EASTERN TEST RANGE (AFETR)

Note: This is SATELLITE DEBRIS
Your satellite tracking list
GLOBALSTAR M074
Track 1 satellite(s)




NASA's NSSDC Master Catalog

Two Line Element Set (TLE):
1 00541U 61015GA  25181.38820101  .00000108  00000-0  15289-3 0  9990
2 00541  67.2170 161.4966 0077570 191.9184 168.0063 13.86156790223565
Source of the keplerian elements: AFSPC